TimeCST,TemperatureF,Dew PointF,Humidity,Sea Level PressureIn,VisibilityMPH,Wind Direction,Wind SpeedMPH,Gust SpeedMPH,PrecipitationIn,Events,Conditions,WindDirDegrees,DateUTC
12:15 AM,37.4,35.6,93,29.98,10.0,SSE,8.1,-,N/A,,Clear,150,2012-11-30 06:15:00
12:35 AM,35.6,33.8,93,29.98,-9999.0,SSE,6.9,-,N/A,,Unknown,160,2012-11-30 06:35:00
12:55 AM,35.6,33.8,93,29.99,-9999.0,SSW,3.5,-,N/A,,Unknown,200,2012-11-30 06:55:00
1:15 AM,35.6,33.8,93,30.00,10.0,SSW,3.5,-,N/A,,Clear,210,2012-11-30 07:15:00
1:35 AM,37.4,35.6,93,29.99,10.0,South,5.8,-,N/A,,Unknown,170,2012-11-30 07:35:00
1:55 AM,37.4,33.8,87,30.00,10.0,South,5.8,-,N/A,,Clear,190,2012-11-30 07:55:00
2:15 AM,35.6,32.0,87,30.00,-9999.0,South,6.9,-,N/A,,Unknown,190,2012-11-30 08:15:00
2:35 AM,35.6,32.0,87,30.00,-9999.0,SSW,6.9,-,N/A,,Unknown,200,2012-11-30 08:35:00
2:55 AM,35.6,32.0,87,29.99,-9999.0,SSW,8.1,-,N/A,,Unknown,200,2012-11-30 08:55:00
3:15 AM,35.6,32.0,87,29.99,-9999.0,SSW,8.1,-,N/A,,Unknown,200,2012-11-30 09:15:00
3:35 AM,37.4,33.8,87,29.99,-9999.0,South,9.2,-,N/A,,Unknown,190,2012-11-30 09:35:00
3:55 AM,37.4,33.8,87,29.99,10.0,SSW,9.2,-,N/A,,Clear,200,2012-11-30 09:55:00
4:15 AM,37.4,33.8,87,29.98,10.0,SSW,8.1,-,N/A,,Clear,200,2012-11-30 10:15:00
4:35 AM,37.4,33.8,87,29.99,10.0,SSW,8.1,-,N/A,,Clear,200,2012-11-30 10:35:00
4:55 AM,35.6,32.0,87,29.99,-9999.0,SSW,9.2,-,N/A,,Unknown,200,2012-11-30 10:55:00
5:15 AM,35.6,32.0,87,29.99,-9999.0,SSW,6.9,-,N/A,,Unknown,210,2012-11-30 11:15:00
5:35 AM,35.6,32.0,87,30.00,-9999.0,SSW,5.8,-,N/A,,Unknown,210,2012-11-30 11:35:00
5:55 AM,35.6,32.0,87,30.00,-9999.0,SW,5.8,-,N/A,,Unknown,220,2012-11-30 11:55:00
6:15 AM,35.6,32.0,87,30.00,-9999.0,SSW,5.8,-,N/A,,Unknown,210,2012-11-30 12:15:00
6:35 AM,35.6,32.0,87,30.01,-9999.0,SW,5.8,-,N/A,,Unknown,220,2012-11-30 12:35:00
6:55 AM,33.8,32.0,93,30.01,-9999.0,SSW,6.9,-,N/A,,Unknown,210,2012-11-30 12:55:00
7:15 AM,33.8,32.0,93,30.01,-9999.0,SSW,6.9,-,N/A,,Unknown,200,2012-11-30 13:15:00
7:35 AM,35.6,32.0,87,30.02,-9999.0,SSW,6.9,-,N/A,,Unknown,210,2012-11-30 13:35:00
7:55 AM,35.6,32.0,87,30.03,-9999.0,SW,6.9,-,N/A,,Unknown,230,2012-11-30 13:55:00
8:15 AM,37.4,33.8,87,30.04,10.0,SW,8.1,-,N/A,,Unknown,220,2012-11-30 14:15:00
8:35 AM,37.4,35.6,93,30.04,10.0,WSW,5.8,-,N/A,,Clear,240,2012-11-30 14:35:00
8:55 AM,41.0,37.4,87,30.04,10.0,WSW,8.1,-,N/A,,Clear,240,2012-11-30 14:55:00
9:15 AM,42.8,37.4,81,30.04,10.0,WSW,6.9,-,N/A,,Clear,250,2012-11-30 15:15:00
9:35 AM,44.6,37.4,76,30.04,10.0,SW,5.8,-,N/A,,Clear,230,2012-11-30 15:35:00
9:55 AM,46.4,37.4,71,30.05,10.0,WSW,4.6,-,N/A,,Clear,240,2012-11-30 15:55:00
10:15 AM,46.4,37.4,71,30.06,10.0,West,5.8,-,N/A,,Clear,280,2012-11-30 16:15:00
10:35 AM,48.2,37.4,66,30.06,10.0,WNW,5.8,-,N/A,,Clear,290,2012-11-30 16:35:00
10:55 AM,48.2,37.4,66,30.06,10.0,NW,6.9,-,N/A,,Clear,310,2012-11-30 16:55:00
11:15 AM,48.2,37.4,66,30.06,10.0,WNW,5.8,-,N/A,,Clear,290,2012-11-30 17:15:00
11:35 AM,50.0,37.4,62,30.05,10.0,WNW,3.5,-,N/A,,Clear,290,2012-11-30 17:35:00
11:55 AM,51.8,39.2,62,30.05,10.0,NW,4.6,-,N/A,,Clear,310,2012-11-30 17:55:00
12:15 PM,51.8,37.4,58,30.05,10.0,Calm,Calm,-,N/A,,Clear,0,2012-11-30 18:15:00
12:35 PM,53.6,37.4,54,30.04,10.0,West,3.5,-,N/A,,Clear,260,2012-11-30 18:35:00
12:55 PM,53.6,37.4,54,30.04,10.0,WNW,3.5,-,N/A,,Clear,290,2012-11-30 18:55:00
1:15 PM,55.4,37.4,51,30.05,10.0,WSW,5.8,-,N/A,,Clear,250,2012-11-30 19:15:00
1:35 PM,53.6,37.4,54,30.05,10.0,WSW,3.5,-,N/A,,Clear,250,2012-11-30 19:35:00
1:55 PM,55.4,37.4,51,30.04,10.0,West,3.5,-,N/A,,Clear,280,2012-11-30 19:55:00
2:15 PM,55.4,37.4,51,30.04,10.0,WSW,3.5,-,N/A,,Clear,240,2012-11-30 20:15:00
2:35 PM,53.6,37.4,54,30.04,10.0,West,4.6,-,N/A,,Clear,270,2012-11-30 20:35:00
2:55 PM,53.6,37.4,54,30.05,10.0,West,4.6,-,N/A,,Clear,260,2012-11-30 20:55:00
3:15 PM,53.6,37.4,54,30.05,10.0,West,3.5,-,N/A,,Clear,260,2012-11-30 21:15:00
3:35 PM,51.8,37.4,58,30.05,10.0,WSW,3.5,-,N/A,,Clear,250,2012-11-30 21:35:00
3:55 PM,51.8,37.4,58,30.05,10.0,Calm,Calm,-,N/A,,Clear,0,2012-11-30 21:55:00
4:15 PM,50.0,37.4,62,30.06,9.0,Calm,Calm,-,N/A,,Clear,0,2012-11-30 22:15:00
4:35 PM,50.0,37.4,62,30.06,9.0,Calm,Calm,-,N/A,,Clear,0,2012-11-30 22:35:00
4:55 PM,46.4,37.4,71,30.06,7.0,North,4.6,-,N/A,,Clear,360,2012-11-30 22:55:00
5:15 PM,44.6,35.6,71,30.06,10.0,NNE,3.5,-,N/A,,Clear,30,2012-11-30 23:15:00
5:35 PM,44.6,37.4,76,30.07,10.0,NE,3.5,-,N/A,,Clear,40,2012-11-30 23:35:00
5:55 PM,44.6,37.4,76,30.07,10.0,NNE,3.5,-,N/A,,Clear,30,2012-11-30 23:55:00
6:15 PM,44.6,37.4,76,30.07,10.0,ENE,3.5,-,N/A,,Clear,60,2012-12-01 00:15:00
6:35 PM,44.6,37.4,76,30.07,10.0,ENE,3.5,-,N/A,,Clear,60,2012-12-01 00:35:00
6:55 PM,42.8,37.4,81,30.07,10.0,NE,5.8,-,N/A,,Clear,40,2012-12-01 00:55:00
7:15 PM,41.0,37.4,87,30.07,10.0,ENE,4.6,-,N/A,,Clear,60,2012-12-01 01:15:00
7:35 PM,41.0,37.4,87,30.08,10.0,NE,5.8,-,N/A,,Clear,50,2012-12-01 01:35:00
7:55 PM,41.0,37.4,87,30.07,10.0,East,5.8,-,N/A,,Clear,100,2012-12-01 01:55:00
8:15 PM,39.2,35.6,87,30.08,9.0,East,3.5,-,N/A,,Clear,80,2012-12-01 02:15:00
8:35 PM,39.2,37.4,93,30.06,10.0,East,6.9,-,N/A,,Clear,90,2012-12-01 02:35:00
9:15 PM,39.2,37.4,93,30.06,10.0,East,6.9,-,N/A,,Clear,100,2012-12-01 03:15:00
9:35 PM,39.2,35.6,87,30.05,10.0,ESE,6.9,-,N/A,,Clear,110,2012-12-01 03:35:00
9:55 PM,39.2,37.4,93,30.05,10.0,ESE,5.8,-,N/A,,Clear,110,2012-12-01 03:55:00
10:15 PM,39.2,37.4,93,30.05,10.0,ESE,4.6,-,N/A,,Clear,110,2012-12-01 04:15:00
10:35 PM,37.4,35.6,93,30.05,10.0,East,5.8,-,N/A,,Clear,90,2012-12-01 04:35:00
10:55 PM,37.4,37.4,100,30.05,10.0,East,4.6,-,N/A,,Clear,100,2012-12-01 04:55:00
11:15 PM,37.4,37.4,100,30.05,8.0,ESE,4.6,-,N/A,,Clear,110,2012-12-01 05:15:00
11:35 PM,37.4,37.4,100,30.05,9.0,ESE,4.6,-,N/A,,Clear,120,2012-12-01 05:35:00
11:55 PM,37.4,37.4,100,30.04,10.0,ESE,6.9,-,N/A,,Clear,110,2012-12-01 05:55:00